Location: Ailly
(50.0793°N, 1.9944°E)
Time: 21:34:16
(UTC+00:00)

Okean 1-7 - Pass Details

Date: 15 January 2026
Orbit: 566 x 588 km, 82.5° (Epoch: 18 February)

Event Time Altitude Azimuth Distance (km) Brightness Sun altitude
Exits shadow 06:14:27 - 350° (N) 2,736 6.1 -14.0°
Reaches altitude 10° 06:16:31 10° 350° (N) 1,883 5.3 -13.7°
Maximum altitude 06:20:40 89° 71° (ENE) 579 2.9 -13.1°
Drops below altitude 10° 06:24:50 10° 171° (S) 1,878 5.9 -12.4°
Sets 06:27:00 0° 172° (S) 2,775 6.8 -12.1°
